SPNFL EPWA-EPLL

Flight info

Callsign SPNFL
Flight time 0h 25m
Altitude 8000
Route SOXER
Aircraft DA42/L-SBDGRY/S

Departure

Time 2026-04-20 16:30
Airport Warsaw Chopin Airport (EPWA)

Arrival

Time 2026-04-20 16:55
Airport Łódź Władysław Reymont Airport (EPLL)
Time Latitude Longitude Altitude Speed Heading
2026-04-20 16:03 52.18052 20.96176 332 ft 0 kts 216°
2026-04-20 16:24 52.18014 20.96147 333 ft 11 kts 277°
2026-04-20 16:25 52.17996 20.96017 331 ft 13 kts 243°
2026-04-20 16:25 52.17953 20.95894 333 ft 12 kts 240°
2026-04-20 16:25 52.17911 20.95771 331 ft 13 kts 240°
2026-04-20 16:25 52.17895 20.95728 333 ft 0 kts 240°
2026-04-20 16:26 52.17872 20.95666 332 ft 13 kts 237°
2026-04-20 16:26 52.17805 20.95636 330 ft 3 kts 151°
2026-04-20 16:26 52.17804 20.95636 330 ft 0 kts 152°
2026-04-20 16:29 52.17804 20.95637 330 ft 2 kts 150°
2026-04-20 16:29 52.17667 20.95757 332 ft 52 kts 152°
2026-04-20 16:29 52.17184 20.96169 353 ft 97 kts 150°
2026-04-20 16:29 52.16559 20.96652 692 ft 98 kts 143°
2026-04-20 16:30 52.15959 20.97132 1116 ft 94 kts 143°
2026-04-20 16:30 52.15371 20.97630 1441 ft 94 kts 138°
2026-04-20 16:30 52.14815 20.98181 1775 ft 95 kts 141°
2026-04-20 16:30 52.14242 20.98717 2111 ft 95 kts 142°
2026-04-20 16:31 52.13663 20.99234 2449 ft 96 kts 145°
2026-04-20 16:31 52.12977 20.99386 2774 ft 106 kts 183°
2026-04-20 16:31 52.12325 20.98745 3087 ft 116 kts 229°
2026-04-20 16:31 52.12047 20.97531 3424 ft 116 kts 265°
2026-04-20 16:32 52.11965 20.96221 3737 ft 119 kts 268°
2026-04-20 16:32 52.11884 20.94879 4069 ft 119 kts 267°
2026-04-20 16:32 52.11799 20.93549 4410 ft 118 kts 267°
2026-04-20 16:32 52.11710 20.92227 4762 ft 118 kts 265°
2026-04-20 16:33 52.11619 20.90896 5087 ft 119 kts 265°
2026-04-20 16:33 52.11525 20.89543 5414 ft 121 kts 265°
2026-04-20 16:33 52.11430 20.88185 5749 ft 121 kts 265°
2026-04-20 16:33 52.11334 20.86827 6092 ft 121 kts 265°
2026-04-20 16:34 52.11238 20.85467 6410 ft 121 kts 265°
2026-04-20 16:34 52.11143 20.84110 6725 ft 122 kts 265°
2026-04-20 16:34 52.11046 20.82743 7059 ft 121 kts 265°
2026-04-20 16:34 52.10949 20.81374 7384 ft 122 kts 265°
2026-04-20 16:35 52.10852 20.80010 7732 ft 121 kts 265°
2026-04-20 16:35 52.10755 20.78638 8044 ft 125 kts 265°
2026-04-20 16:35 52.10648 20.77092 8063 ft 149 kts 265°
2026-04-20 16:35 52.10524 20.75319 8060 ft 164 kts 265°
2026-04-20 16:36 52.10387 20.73417 8059 ft 173 kts 264°
2026-04-20 16:36 52.10247 20.71477 8057 ft 175 kts 264°
2026-04-20 16:36 52.10104 20.69504 8075 ft 176 kts 265°
2026-04-20 16:36 52.09960 20.67524 8073 ft 176 kts 264°
2026-04-20 16:37 52.09749 20.65562 8056 ft 177 kts 248°
2026-04-20 16:37 52.09236 20.63752 8062 ft 176 kts 248°
2026-04-20 16:37 52.08954 20.61826 8055 ft 175 kts 263°
2026-04-20 16:37 52.08825 20.59857 8055 ft 175 kts 266°
2026-04-20 16:38 52.08751 20.58543 8055 ft 176 kts 266°
2026-04-20 16:38 52.08632 20.56565 8055 ft 176 kts 265°
2026-04-20 16:38 52.08506 20.54590 8054 ft 176 kts 265°
2026-04-20 16:38 52.08378 20.52620 8050 ft 175 kts 264°
2026-04-20 16:39 52.08249 20.50649 8050 ft 175 kts 264°
2026-04-20 16:39 52.08122 20.48688 8043 ft 174 kts 264°
2026-04-20 16:39 52.07993 20.46721 8040 ft 175 kts 264°
2026-04-20 16:39 52.07865 20.44775 8049 ft 175 kts 264°
2026-04-20 16:40 52.07736 20.42810 8053 ft 175 kts 264°
2026-04-20 16:40 52.07606 20.40836 8053 ft 175 kts 264°
2026-04-20 16:40 52.07476 20.38866 8053 ft 175 kts 264°
2026-04-20 16:40 52.07345 20.36887 8043 ft 175 kts 264°
2026-04-20 16:41 52.07216 20.34944 8052 ft 175 kts 264°
2026-04-20 16:41 52.07085 20.32973 8041 ft 175 kts 264°
2026-04-20 16:41 52.06953 20.31006 8047 ft 175 kts 264°
2026-04-20 16:41 52.06820 20.29034 8047 ft 174 kts 264°
2026-04-20 16:42 52.06689 20.27075 8052 ft 174 kts 264°
2026-04-20 16:42 52.06556 20.25113 8051 ft 175 kts 264°
2026-04-20 16:42 52.06425 20.23169 8051 ft 175 kts 264°
2026-04-20 16:42 52.05960 20.21384 8041 ft 173 kts 227°
2026-04-20 16:43 52.05091 20.20035 8043 ft 172 kts 218°
2026-04-20 16:43 52.04181 20.18752 8050 ft 173 kts 219°
2026-04-20 16:43 52.03302 20.17409 8049 ft 174 kts 221°
2026-04-20 16:43 52.02444 20.16021 8049 ft 174 kts 223°
2026-04-20 16:44 52.01590 20.14621 8047 ft 175 kts 223°
2026-04-20 16:44 52.00733 20.13220 8055 ft 175 kts 223°
2026-04-20 16:44 51.99872 20.11814 8052 ft 177 kts 223°
2026-04-20 16:44 51.99003 20.10396 8053 ft 178 kts 223°
2026-04-20 16:45 51.98128 20.08969 8056 ft 178 kts 223°
2026-04-20 16:45 51.97242 20.07529 7948 ft 184 kts 223°
2026-04-20 16:45 51.96323 20.06037 7792 ft 189 kts 223°
2026-04-20 16:45 51.95388 20.04513 7636 ft 192 kts 222°
2026-04-20 16:46 51.94454 20.02993 7485 ft 193 kts 222°
2026-04-20 16:46 51.93501 20.01445 7331 ft 194 kts 222°
2026-04-20 16:46 51.92547 19.99896 7177 ft 194 kts 222°
2026-04-20 16:46 51.91593 19.98347 7026 ft 194 kts 222°
2026-04-20 16:47 51.90635 19.96795 6872 ft 195 kts 222°
2026-04-20 16:47 51.89676 19.95241 6715 ft 195 kts 221°
2026-04-20 16:47 51.88717 19.93688 6570 ft 195 kts 221°
2026-04-20 16:47 51.87758 19.92136 6418 ft 195 kts 221°
2026-04-20 16:48 51.86801 19.90588 6262 ft 194 kts 221°
2026-04-20 16:48 51.85840 19.89037 6108 ft 196 kts 221°
2026-04-20 16:48 51.84876 19.87483 5825 ft 202 kts 221°
2026-04-20 16:48 51.83870 19.85856 5459 ft 205 kts 221°
2026-04-20 16:49 51.82861 19.84225 5093 ft 205 kts 221°
2026-04-20 16:49 51.81961 19.82429 4732 ft 207 kts 238°
2026-04-20 16:49 51.81419 19.80271 4363 ft 205 kts 250°
2026-04-20 16:49 51.80960 19.78115 3992 ft 201 kts 251°
2026-04-20 16:50 51.80510 19.75983 3631 ft 199 kts 250°
2026-04-20 16:50 51.80068 19.73910 3277 ft 197 kts 250°
2026-04-20 16:50 51.79622 19.71833 2994 ft 191 kts 250°
2026-04-20 16:50 51.79224 19.69885 2996 ft 176 kts 252°
2026-04-20 16:51 51.78597 19.68266 2995 ft 167 kts 230°
2026-04-20 16:51 51.78061 19.66638 2992 ft 163 kts 246°
2026-04-20 16:51 51.77659 19.64940 2992 ft 161 kts 248°
2026-04-20 16:51 51.77284 19.63244 2990 ft 160 kts 250°
2026-04-20 16:52 51.76919 19.61555 2993 ft 159 kts 250°
2026-04-20 16:52 51.76552 19.59864 2991 ft 160 kts 250°
2026-04-20 16:52 51.76188 19.58190 2956 ft 162 kts 250°
2026-04-20 16:52 51.75803 19.56425 2755 ft 171 kts 250°
2026-04-20 16:53 51.75402 19.54586 2515 ft 175 kts 250°
2026-04-20 16:53 51.74997 19.52722 2275 ft 176 kts 250°
2026-04-20 16:53 51.74593 19.50860 2032 ft 175 kts 250°
2026-04-20 16:53 51.74201 19.49052 1794 ft 162 kts 250°
2026-04-20 16:54 51.73847 19.47412 1575 ft 148 kts 250°
2026-04-20 16:54 51.73516 19.45896 1360 ft 139 kts 250°
2026-04-20 16:54 51.73205 19.44466 1159 ft 132 kts 250°
2026-04-20 16:54 51.72895 19.43115 997 ft 119 kts 250°
2026-04-20 16:55 51.72653 19.41996 837 ft 93 kts 253°
2026-04-20 16:55 51.72456 19.41067 723 ft 88 kts 253°
2026-04-20 16:55 51.72259 19.40143 601 ft 79 kts 250°
2026-04-20 16:55 51.72132 19.39531 594 ft 34 kts 257°
2026-04-20 16:56 51.72110 19.39439 594 ft 12 kts 70°
2026-04-20 16:56 51.72160 19.39687 593 ft 30 kts 71°
2026-04-20 16:56 51.72220 19.39960 596 ft 22 kts 70°
2026-04-20 16:56 51.72265 19.40168 598 ft 17 kts 72°
2026-04-20 16:57 51.72310 19.40368 597 ft 26 kts 72°
2026-04-20 16:57 51.72349 19.40623 597 ft 16 kts 120°
2026-04-20 16:57 51.72265 19.40721 599 ft 15 kts 142°
2026-04-20 16:57 51.72180 19.40817 599 ft 15 kts 149°
2026-04-20 16:58 51.72108 19.40849 599 ft 6 kts 114°
2026-04-20 16:58 51.72111 19.40870 599 ft 0 kts 298°